Showing default

AII-BRAVO, 48270

Orbit data source: Space-Track

AII-BRAVO, 48270 is a Lithuanian payload satellite in SSO that was launched on Thu, 29 Apr 2021 UTC via a VEGA launch vehicle from the French Guiana (FRGUI). Payload-class satellites include a variety of spacecraft equipped with specific instruments for various scientific and technological missions. These include communications satellites like Starlink; space stations such as the ISS; scientific satellites like the Hubble; Earth observation satellites from companies like Planet Labs, Umbra, and HawkEye 360; GPS; miniature CubeSats for education and research; and military/defense satellites.

Loading next visibility...
Identifier
48270, 2021-034C
Orbit
SSO
Country
Flag of LTLT / LTU
Related business
Manufacturer
NanoAvionics US
Mission
Operational Commercial Sigint
Bus & Motor
CUBESAT 6U, Unknown motor
Mass
~10 kg wet, ~10 kg dry
Launch date (UTC)
2021-04-29 (5 years ago)
Launch vehicle
VEGA
Launch site
French Guiana (FRGUI)
Object type
Payload
Rocket body
Debris
Shape & HBR
Box + 2 Pan, 0.3 m
Radar Cross Section
0.104 m², Small (<0.1 m²)

Expand to show TLE details & history
Last TLE update: 8 hours ago

TLE from 8 hours ago
0 AII-BRAVO
1 48270U 21034C   25346.96228302  .00008136  00000-0  63183-3 0  9995
2 48270  97.5939  41.0615 0005647 191.7287 168.3807 15.01575098251652
Epoch: 2025-12-12T23:05Z
TLE epoch observation values (Epoch: 2025-12-12T23:05:41.252Z)
Latitude
-0.00005°
Longitude
-27.25676°
Altitude
568.938 km
Speed
7.574 km/s
True Right ascension
02h 44m 14s
True Declination
0° 00' 00"
Sunlit
Object was in full shadow at epoch
Visualization orbit readout
Latitude
Unknown
Longitude
Unknown
Altitude
Unknown
Speed
Unknown
Apparent Right ascension
Unknown
Apparent Declination
Unknown
Sunlit
N/A
Visualization observer readout
Local Sidereal Time
05:22:59
Azimuth
Unknown
Elevation
Unknown
Doppler factor
Unknown
Orbital elements
Apogee altitude
562.955 km
Perigee altitude
555.12 km
Semi-major axis
6,937.174 km
Eccentricity
0.00056
Inclination
97.5939°
RAAN
41.0615°
Arg. of periapsis
191.7287°
True anomaly
168.39372°
Mean anomaly
168.3807°
Eccentric anomaly
168.38721°
Mean motion
3.75638 °/min
Orbital period
95.84 mins
BSTAR
0.00063183
Loading maneuver chart data...
Computing Atmospheric mass density...
Loading historical data...
Loading historical data...
Loading historical data...
Loading historical data...
Loading historical data...
Loading historical data...
Loading historical data...
Other satellites on launch #34 in the year 2021 (2021-04-29 UTC)

Documentation

Showing up to 5 results
|